Preview of NWS' New Version of Forecast
This preview is not operational and should not be used for support decisions.

Regional Weather Roundup (RWR)

Issued by National Weather Service (NWS)

                            
000
ASUS43 KMKX 221210
RWRWI 

WISCONSIN REGIONAL WEATHER ROUNDUP
NATIONAL WEATHER SERVICE MILWAUKEE/SULLIVAN WI
700 AM CDT MON APR 22 2019

NOTE: "FAIR" INDICATES FEW OR NO CLOUDS BELOW 12,000 FEET WITH NO
SIGNIFICANT WEATHER AND/OR OBSTRUCTIONS TO VISIBILITY.

WIZ001-002-006>008-014>016-023>028-221300-
NORTHWEST WISCONSIN
  
CITY           SKY/WX    TMP DP  RH WIND       PRES   REMARKS
SUPERIOR ARPT  LGT RAIN  36  33  92 NE10      30.12S WCI  28          
6HR MIN TEMP:  36; 6HR MAX TEMP:  39; 6HR PCP:  0.10;                

ASHLAND        LGT RAIN  38  37  97 NE15      30.10R WCI  29          
6HR MIN TEMP:  37; 6HR MAX TEMP:  39; 6HR PCP:  0.47;                

HAYWARD        RAIN      41  40  96 N10       30.04R FOG              
6HR MIN TEMP:  41; 6HR MAX TEMP:  42; 6HR PCP:  0.44;                

SIREN          CLOUDY    42  41  95 NE10      30.00R                  
6HR MIN TEMP:  42; 6HR MAX TEMP:  42; 6HR PCP:  0.12;                

CUMBERLAND     CLOUDY    41  41 100 NE14      29.97S                  
RICE LAKE      LGT RAIN  45  39  79 NE10      29.97F                  
6HR MIN TEMP:  45; 6HR MAX TEMP:  47; 6HR PCP:  0.03;                

CHETEK         LGT RAIN  45  42  90 NE7       29.97S                  
6HR MIN TEMP:  45; 6HR MAX TEMP:  49;                                

LADYSMITH      CLOUDY    44  43  95 NE6       30.01R                  
6HR MIN TEMP:  44; 6HR MAX TEMP:  50; 6HR PCP:  0.02;                

EAU CLAIRE     CLOUDY    48  36  63 NE12      29.94R                  
6HR MIN TEMP:  48; 6HR MAX TEMP:  50;                                

MENOMONIE      CLOUDY    46  34  62 NE10      29.94S                  
6HR MIN TEMP:  45; 6HR MAX TEMP:  46;                                

NEW RICHMOND   CLOUDY    46  41  83 NE9       29.95R                  
6HR MIN TEMP:  46; 6HR MAX TEMP:  47;                                

OSCEOLA        CLOUDY    45  43  93 N9        29.98R                  
6HR MIN TEMP:  44; 6HR MAX TEMP:  46; 6HR PCP:  0.18;                

$$
 
WIZ003>005-009-010-017-018-221300-
NORTH CENTRAL WISCONSIN
  
CITY           SKY/WX    TMP DP  RH WIND       PRES   REMARKS
MANITOWISH WTR RAIN      38  38 100 NE8       30.04F WCI  32          
6HR MIN TEMP:  38; 6HR MAX TEMP:  39; 6HR PCP:  0.29;                

ARBOR VITAE    CLOUDY    42  40  93 E7        30.02F                  
6HR MIN TEMP:  42; 6HR MAX TEMP:  42;                                

WOODRUFF       CLOUDY    42  40  93 E7        30.02F                  
6HR MIN TEMP:  42; 6HR MAX TEMP:  42;                                

RHINELANDER    CLOUDY    43  34  70 E7        30.02S                  
6HR MIN TEMP:  43; 6HR MAX TEMP:  46; 6HR PCP: TRACE;                

EAGLE RIVER    LGT RAIN  40  39  99 NE7       30.04R WCI  35          
6HR MIN TEMP:  39; 6HR MAX TEMP:  41;                                

LAND O LAKES   LGT RAIN  39  39 100 NE6       30.09R WCI  35          
6HR MIN TEMP:  39; 6HR MAX TEMP:  40; 6HR PCP:  0.17;                

PHILLIPS       CLOUDY    41  41 100 NE8       30.01S                  
6HR MIN TEMP:  41; 6HR MAX TEMP:  45; 6HR PCP:  0.02;                

TOMAHAWK       CLOUDY    41  36  82 N3        30.02R                  
6HR MIN TEMP:  40; 6HR MAX TEMP:  44;                                

MEDFORD        CLOUDY    43  34  72 E9        29.99R                  
6HR MIN TEMP:  41; 6HR MAX TEMP:  46;                                

MERRILL        MOCLDY    44  37  75 CALM      30.01R                  
6HR MIN TEMP:  43; 6HR MAX TEMP:  46;                                

$$
 
WIZ029-030-035-036-043>047-221300-
CENTRAL WISCONSIN
  
CITY           SKY/WX    TMP DP  RH WIND       PRES   REMARKS
WAUSAU         NOT AVBL                                               
MOSINEE        MOCLDY    43  34  70 E10       30.00R                  
MARSHFIELD     CLOUDY    44  35  70 E12       29.97R                  
6HR MIN TEMP:  43; 6HR MAX TEMP:  52;                                

STEVENS POINT  FAIR      42  33  69 E9        30.01R                  
6HR MIN TEMP:  42; 6HR MAX TEMP:  49;                                

WAUPACA        FAIR      45  36  70 NE5       30.02R                  
6HR MIN TEMP:  44; 6HR MAX TEMP:  53;                                

WAUTOMA        MOCLDY    45  37  73 NE7       30.01R                  
6HR MIN TEMP:  45; 6HR MAX TEMP:  61;                                

WISC RAPIDS    CLOUDY    46  32  58 E13       29.98R                  
6HR MIN TEMP:  46; 6HR MAX TEMP:  57;                                

CAMP DOUGLAS   MOCLDY    54  45  71 E3        29.94R                  
$$
 
WIZ011>013-019>022-031-037>040-048>050-221300-
NORTHEAST WISCONSIN
  
CITY           SKY/WX    TMP DP  RH WIND       PRES   REMARKS
ANTIGO         CLOUDY    43  33  67 E10       30.02R                  
6HR MIN TEMP:  40; 6HR MAX TEMP:  43;                                

SHAWANO        CLOUDY    46  37  69 NE9       30.04R                  
6HR MIN TEMP:  44; 6HR MAX TEMP:  49;                                

OCONTO         CLOUDY    44  34  67 NE7       30.04S                  
6HR MIN TEMP:  42; 6HR MAX TEMP:  44;                                

STURGEON BAY   CLOUDY    43  37  79 NE5       30.05R                  
6HR MIN TEMP:  40; 6HR MAX TEMP:  44;                                

GREEN BAY      FAIR      44  37  76 NE10      30.03R                  
6HR MIN TEMP:  44; 6HR MAX TEMP:  48;                                

MANITOWOC      CLOUDY    46  40  79 CALM      30.03S                  
6HR MIN TEMP:  44; 6HR MAX TEMP:  49;                                

APPLETON       MOCLDY    43  32  65 NE9       30.00R                  
CLINTONVILLE   FAIR      43  34  70 NE6       30.03S                  
6HR MIN TEMP:  42; 6HR MAX TEMP:  48;                                

OSHKOSH        FAIR      45  39  79 NE7       30.00R                  
6HR MIN TEMP:  44; 6HR MAX TEMP:  60;                                

$$
 
WIZ032>034-041-042-053>061-221300-
SOUTHWEST WISCONSIN
  
CITY           SKY/WX    TMP DP  RH WIND       PRES   REMARKS
LA CROSSE      FAIR      62  44  51 E8        29.88R                  
6HR MIN TEMP:  57; 6HR MAX TEMP:  71;                                

SPARTA         FAIR      57  46  66 SE5       29.93R                  
6HR MIN TEMP:  53; 6HR MAX TEMP:  69;                                

VIROQUA        FAIR      56  47  70 E8        29.91F                  
6HR MIN TEMP:  58; 6HR MAX TEMP:  66;                                

BOSCOBEL       FAIR      57  45  64 CALM      29.92S                  
6HR MIN TEMP:  53; 6HR MAX TEMP:  69;                                

PRAIRIE DU CHI FAIR      60  44  55 E6        29.89S                  
6HR MIN TEMP:  58; 6HR MAX TEMP:  69;                                

PLATTEVILLE    FAIR      57  48  70 SE8       29.95R                  
6HR MIN TEMP:  56; 6HR MAX TEMP:  63;                                

$$

WIZ056-057-062-063-064-067-068-221300-
SOUTH CENTRAL WISCONSIN
  
CITY           SKY/WX    TMP DP  RH WIND       PRES   REMARKS
REEDSBURG      FAIR      61  45  55 CALM      29.93S                  
6HR MIN TEMP:  58; 6HR MAX TEMP:  65;                                

BARABOO/DELLS  FAIR      59  43  54 E7        29.95R                  
6HR MIN TEMP:  57; 6HR MAX TEMP:  64;                                

LONE ROCK      FAIR      58  46  64 E9        29.94R                  
6HR MIN TEMP:  54; 6HR MAX TEMP:  66;                                

MINERAL POINT  FAIR      55  46  71 SE9       29.95R                  
MADISON        MOCLDY    58  42  55 S10       29.96S                  
6HR MIN TEMP:  56; 6HR MAX TEMP:  63;                                

MIDDLETON      FAIR      60  44  54 S7        29.97S                  
6HR MIN TEMP:  58; 6HR MAX TEMP:  65;                                

WATERTOWN      FAIR      56  42  59 SE3       29.99R                  
6HR MIN TEMP:  56; 6HR MAX TEMP:  64;                                

MONROE         FAIR      56  42  60 MISG      29.98R                  
6HR MIN TEMP:  55; 6HR MAX TEMP:  61;                                

JANESVILLE     MOCLDY    57  43  58 S12       29.99R                  
$$
 
WIZ051-052-058>065-066-070>072-221300-
SOUTHEAST WISCONSIN
  
CITY           SKY/WX    TMP DP  RH WIND       PRES   REMARKS
MILWAUKEE      PTSUNNY   56  38  50 S12       30.02R                  
6HR MIN TEMP:  49; 6HR MAX TEMP:  61;                                

WAUKESHA       CLEAR     57  37  47 S7        30.02R                  
MILWAUKEE/TIMM FAIR      55  36  47 S3        30.02S                  
RACINE         FAIR      51  38  60 S10       30.04S                  
6HR MIN TEMP:  48; 6HR MAX TEMP:  56;                                

KENOSHA        FAIR      56  41  57 S6        30.03R                  
6HR MIN TEMP:  50; 6HR MAX TEMP:  60;                                

FOND DU LAC    FAIR      47  41  80 CALM      30.00R                  
6HR MIN TEMP:  47; 6HR MAX TEMP:  63;                                

SHEBOYGAN      PTSUNNY   50  39  66 S6        30.01R                  
6HR MIN TEMP:  47; 6HR MAX TEMP:  50;                                

WEST BEND      FAIR      50  41  71 E3        30.01S                  
JUNEAU         FAIR      55  41  60 SE7       30.00R                  
6HR MIN TEMP:  55; 6HR MAX TEMP:  63;                                

$$

LSZ147-162-221300-
LAKE SUPERIOR
  
STATION/POSITION TIME  TEMP    WIND        PRES    WAVE
                       AIR SEA DIR/SP/G            HT/PER
                 (UTC) (F)     (DEG/KT/KT) (MB)    (FT/S)
$$
 
LMZ867-665-643>646-221300-
LAKE MICHIGAN
  
STATION/POSITION TIME  TEMP    WIND        PRES    WAVE
                       AIR SEA DIR/SP/G            HT/PER
                 (UTC) (F)     (DEG/KT/KT) (MB)    (FT/S)
NORTHPORT PIER   1140   38      70/  5/  6 1017.9R
KEWAUNEE LAKESHO 1148   43      30/  2/  6 1015.9R
SHEBOYGAN LAKESH 1200   46     180/ 15/ 16 1016.8R
MILWAUKEE LAKESH 1150   44